SCP
0 0 0 0 0 0 0 0 0 0 0 0 -0 0 -0 -0 -0 0 0 0 0 0 0 0 0 0 0 0 0 0 0 0 0 0 0 0 0 0 0 0 0 0 0 0 0 0 0
0 0 0 0 0 0 0 0 0 0 0 -0 -0 -0 -0 -0 -0 0 0 0 0 0 0 0 0 0 0 0 0 0 0 0 0 0 0 0 0 0 0 0 0 0 0 0 0 0 0
0 0 0 0 0 0 0 0 0 0 0 -0 -0 -0 -0 -0 -0 -0 0 0 0 0 0 0 0 0 0 0 0 0 0 0 0 0 0 -0 0 0 0 0 0 0 0 0 0 0 0
0 0 0 0 0 0 0 0 0 0 0 -0 0 -0 -0 -0 -0 -0 -0 0 0 0 0 0 0 0 0 0 0 0 -0 0 0 0 0 0 0 0 0 0 0 0 0 0 0 0 0
0 0 0 0 0 0 0 0 0 0 0 -0 0 -0 -0 -0 0 -0 -0 0 0 0 0 0 -0 0 0 0 0 -0 -0 0 0 0 0 0 0 0 0 0 0 0 0 0 0 0 0
0 0 0 0 0 0 0 0 0 0 -0 -0 -0 0 -0 -0 -0 0 0 -0 0 0 0 0 0 0 0 0 -0 0 -0 0 0 0 0 0 0 0 0 0 0 0 0 0 0 0 0
0 0 0 0 0 0 0 0 0 -0 -0 -0 -0 -0 -0 -0 -0 0 0 0 0 0 0 0 0 0 0 0 0 0 0 0 0 0 0 0 0 0 0 0 0 0 0 0 0 0 0
0 0 0 0 0 0 0 0 -0 0 -0 -0 -0 -0 -0 0 0 0 0 0 0 0 0 0 0 0 0 0 0 0 0 0 0 0 0 0 0 0 0 0 0 0 0 0 0 0 0
0 0 0 0 0 0 0 0 0 -0 -0 -0 -0 -0 -0 0 0 0 0 -0 0 0 0 0 0 0 0 0 0 0 0 0 0 0 0 0 0 0 0 0 0 0 0 0 0 0 -0
0 0 0 0 0 0 0 0 -0 -0 -0 -0 -0 -0 -0 -0 0 0 0 0 0 0 0 0 0 0 0 0 0 0 0 0 0 0 0 0 0 0 0 0 0 0 0 0 0 0 0
0 0 0 0 0 0 0 -0 -0 -0 -0 -0 -0 -0 -0 -0 0 0 0 0 0 0 0 0 0 0 0 0 0 0 0 0 0 0 0 0 0 0 0 0 0 0 0 0 0 0 0
0 0 0 0 0 0 0 -0 -0 -0 -0 -0 -0 -0 -0 0 0 -0 0 0 0 0 0 0 -0 0 0 0 0 0 0 0 0 0 0 0 -0 0 0 0 0 0 0 0 0 0 0
0 0 0 0 0 -0 0 -0 -0 -0 -0 -0 -0 -0 -0 0 -0 0 0 0 0 0 0 0 0 0 -0 -0 0 0 0 0 0 0 0 0 0 0 0 0 0 0 0 0 0 0 0
0 0 0 0 0 -0 0 -0 -0 -0 -0 -0 -0 -0 0 -0 -0 0 0 0 0 0 0 0 0 0 -0 0 0 0 0 0 0 0 0 0 0 0 0 0 0 0 0 0 0 0 0
0 0 0 0 -0 -0 -0 -0 -0 -0 -0 -0 -0 0 0 -0 0 0 0 0 0 0 0 0 0 0 0 0 0 0 0 0 0 0 0 0 0 0 0 0 0 0 0 0 0 0 0
0 0 0 0 -0 -0 -0 -0 -0 -0 -0 -0 0 0 0 -0 0 0 0 0 0 0 0 0 0 0 0 0 0 0 0 0 0 -0 0 0 0 0 0 0 0 0 0 0 0 0 0
0 0 0 -0 -0 -0 -0 -0 -0 -0 -0 -0 0 0 0 0 0 0 0 0 0 0 0 0 0 0 0 0 0 0 0 0 0 0 -0 0 0 0 0 0 0 0 0 0 0 0 0
0 0 0 -0 -0 -0 -0 -0 -0 -0 -0 0 0 0 0 0 0 -0 0 0 0 0 0 0 0 0 0 0 0 0 0 0 0 0 0 0 0 0 0 0 0 0 0 0 0 0 0
0 0 0 0 -0 -0 -0 -0 -0 -0 -0 0 0 0 0 0 0 0 0 0 0 0 0 0 0 0 0 0 0 0 0 0 0 0 0 0 0 0 0 0 0 0 0 0 0 0 0
0 0 0 0 -0 0 0 0 -0 -0 0 0 0 0 0 0 0 0 0 0 0 0 0 0 0 0 0 0 0 0 0 0 0 0 0 0 0 0 0 0 0 0 0 0 0 0 0
0 0 0 0 -0 0 0 0 0 -0 -0 0 0 0 0 0 0 0 0 0 0 0 0 0 0 0 0 0 0 0 0 0 0 0 0 0 0 0 0 0 0 0 0 0 0 0 0
0 0 0 0 0 0 0 0 0 0 -0 0 0 0 0 0 0 0 0 0 0 0 0 0 0 0 0 0 0 0 0 0 0 0 0 0 0 0 0 0 0 0 0 0 0 0 0
0 0 0 0 0 0 0 0 0 0 0 0 0 0 0 0 0 0 0 0 0 0 0 0 0 0 0 0 0 0 0 0 0 0 0 0 0 0 0 0 0 0 0 0 0 0 0
0 0 0 0 0 0 0 0 0 0 0 0 0 0 0 0 0 0 0 0 0 0 0 0 0 0 0 0 0 0 0 0 0 0 0 0 0 0 0 0 0 0 0 0 0 0 0
0 0 0 0 0 0 0 0 0 0 0 0 0 0 0 0 0 0 0 0 0 0 0 0 0 0 0 0 0 0 0 0 0 0 0 0 0 0 0 0 0 0 0 0 0 0 0
0 0 0 0 0 0 0 0 0 0 0 0 0 0 0 0 0 0 0 0 0 0 0 0 0 0 0 0 0 0 0 0 0 0 0 0 0 0 0 0 0 0 0 0 0 0 0
0 0 0 0 0 0 0 0 0 0 0 0 0 0 0 0 0 0 0 0 0 0 0 0 0 0 0 0 0 0 0 0 0 0 0 0 0 0 0 0 0 0 0 0 0 0 0
0 0 0 0 0 0 0 0 0 0 0 0 0 0 0 0 0 0 0 0 0 0 0 0 0 0 0 0 0 0 0 0 0 0 0 0 0 0 0 0 0 0 0 0 0 0 0
0 0 0 0 0 0 0 0 0 0 0 0 0 0 0 0 0 0 0 0 0 0 0 0 0 0 0 0 0 0 0 0 0 0 0 0 0 0 0 0 0 0 0 0 0 0 0
Wind_Speed_500mb
44 44 44 44 43 40 38 36 37 37 32 33 37 38 37 34 33 29 25 21 13 8 6 5 6 6 8 9 19 2 9 9 40 41 41 34 30 17 10 14 27 10 19 41 56 62 54
43 42 44 46 44 43 39 37 37 37 36 33 33 36 37 34 33 31 27 21 16 9 5 4 4 6 9 6 9 6 3 11 29 41 36 40 25 22 12 21 16 19 35 43 56 57 50
44 45 45 43 42 41 41 39 38 39 39 37 33 32 35 37 32 31 29 24 15 13 8 6 3 8 15 21 14 3 5 13 22 28 36 44 24 17 4 13 19 35 12 15 24 38 20
47 44 42 42 39 38 40 42 40 40 39 38 37 35 36 42 40 36 31 24 17 11 13 12 8 11 16 15 21 19 14 13 17 20 29 21 16 33 25 16 14 6 6 4 13 12 14
49 46 45 42 39 41 41 41 42 43 41 40 42 41 40 46 48 43 28 23 16 11 11 12 10 11 17 17 33 26 22 19 23 21 19 11 22 8 4 8 10 11 4 9 17 7 6
48 44 42 41 41 43 43 42 42 42 41 40 41 42 44 49 54 38 20 19 13 11 11 13 14 12 16 15 31 36 25 23 21 17 25 22 2 5 7 9 9 8 4 11 13 11 6
41 44 42 40 42 44 44 44 45 43 44 41 39 42 47 53 50 34 13 10 8 8 26 23 16 13 5 5 27 33 37 39 32 27 8 7 8 10 17 14 13 11 9 16 22 22 7
42 39 38 40 43 44 46 46 47 46 45 44 40 45 49 58 44 29 17 21 16 7 13 31 36 37 30 14 8 20 44 23 14 9 9 3 14 21 18 14 15 17 20 25 16 20 14
38 37 38 40 42 46 47 47 46 48 47 47 43 46 51 54 36 17 20 38 19 6 4 11 31 31 25 6 20 34 42 37 9 10 10 13 19 18 18 20 16 18 17 12 15 12 5
35 36 39 40 43 47 49 50 50 49 49 46 46 43 50 42 11 13 4 18 16 6 7 6 13 11 19 9 5 24 45 38 6 16 11 12 33 23 14 17 17 31 24 16 9 3 9
37 38 37 40 45 48 49 53 53 51 52 47 45 43 41 23 13 6 13 9 24 10 6 10 12 6 12 19 4 16 42 41 16 14 13 15 5 4 6 6 6 16 13 11 2 2 6
37 38 39 42 45 51 54 57 57 54 52 48 45 38 21 10 7 19 17 28 21 4 6 7 14 13 10 11 6 18 18 29 10 5 3 10 6 6 6 15 6 11 2 9 8 7 3
40 40 41 44 47 53 56 57 60 59 51 50 37 19 9 9 8 17 12 23 7 0 8 6 10 12 11 10 8 17 10 9 9 6 8 9 7 5 9 4 14 19 12 7 8 6 9
43 42 43 44 49 54 58 57 58 61 50 45 18 7 3 7 8 9 8 9 6 9 12 12 11 17 12 11 8 10 12 8 6 11 3 6 3 5 4 8 1 4 8 9 8 6 7
46 43 43 45 49 55 55 55 58 60 51 36 8 5 4 13 12 5 2 8 6 10 14 5 11 8 6 6 9 6 8 4 6 18 15 7 8 4 22 9 6 7 8 8 7 5 4
45 45 43 45 48 52 53 53 56 59 50 25 16 7 7 16 20 9 6 1 7 22 8 10 6 6 7 7 8 8 6 8 8 12 3 2 2 10 11 12 9 8 6 2 6 3 9
44 43 42 42 47 48 52 51 53 57 47 26 13 5 12 21 18 3 3 8 8 12 14 8 5 6 8 6 7 5 4 5 7 7 16 7 7 10 8 5 4 11 8 7 6 7 7
48 44 41 39 39 44 49 49 50 54 47 25 9 4 18 21 7 4 6 7 5 6 10 11 5 4 7 6 5 4 3 6 9 4 6 6 8 1 8 13 10 6 3 6 8 5 5
49 49 38 36 36 41 47 47 43 45 47 45 25 8 13 23 5 2 7 11 8 6 10 7 13 6 7 7 6 1 8 12 19 8 7 1 5 6 15 11 12 11 6 6 7 6 11
44 41 38 32 32 37 41 46 40 37 37 34 9 6 1 9 5 6 6 6 5 12 10 10 5 12 9 4 2 4 6 4 15 14 18 13 5 10 11 8 2 11 14 10 13 8 7
40 41 31 32 32 33 37 43 40 36 29 16 2 4 8 3 6 1 2 2 8 5 7 8 12 9 9 6 6 7 9 8 13 22 8 10 9 6 9 12 10 16 24 26 18 19 21
38 33 29 25 29 26 36 40 39 34 22 14 9 9 16 11 16 4 4 10 12 7 8 8 10 8 12 8 4 4 5 4 3 3 6 6 5 7 7 16 20 25 28 27 29 26 26
34 29 26 24 20 23 30 35 35 32 21 8 13 3 5 12 8 2 2 5 9 7 23 21 8 7 14 6 7 8 9 13 12 10 5 8 10 5 7 7 13 14 13 15 11 3 7
32 26 27 18 17 22 26 27 28 25 20 18 23 10 6 5 7 6 11 14 14 9 9 5 10 8 1 9 21 23 24 29 23 17 22 11 10 6 7 7 5 11 12 5 15 6 5
32 16 17 17 16 23 24 23 23 18 15 9 13 8 7 3 13 14 15 9 14 9 4 12 12 10 5 6 7 9 9 3 10 15 17 15 10 6 5 6 12 15 6 6 1 7 5
26 20 18 16 23 22 19 21 19 16 12 3 4 8 2 1 7 19 6 7 5 5 9 10 15 13 8 6 5 2 5 3 4 3 7 14 9 7 6 7 11 3 5 4 4 7 5
20 17 16 18 17 22 17 19 20 13 12 4 4 7 4 3 14 14 9 5 6 8 6 7 5 7 10 5 3 3 6 4 3 3 3 5 2 14 13 10 11 6 8 3 7 9 7
21 19 20 20 21 23 21 21 15 12 13 4 5 5 6 3 7 10 14 9 6 6 7 0 5 7 7 5 4 5 3 5 5 4 9 9 7 6 4 6 12 9 6 6 10 8 20
23 24 26 26 27 26 21 15 13 11 12 5 4 3 6 7 6 17 12 8 5 7 12 6 6 5 3 6 4 2 4 6 3 4 3 2 10 4 9 6 16 33 26 9 6 8 12
Wind_Direction_500mb
346 347 344 341 339 334 332 330 329 330 332 332 332 332 331 332 334 340 346 341 335 338 333 315 287 255 242 231 241 122 46 159 177 185 195 192 194 195 178 193 232 179 258 262 261 263 261
345 345 343 344 344 342 338 335 333 331 331 332 331 330 333 334 330 327 331 334 326 311 302 311 304 244 222 250 195 184 300 201 186 190 190 194 199 212 256 218 163 231 235 255 266 264 256
342 341 344 345 347 347 342 338 336 332 331 334 335 329 330 330 331 324 316 317 314 298 267 259 263 240 244 231 181 177 342 222 198 198 193 189 199 246 242 322 295 263 252 285 262 255 233
339 339 338 340 341 344 341 336 335 331 329 329 334 330 325 322 323 318 307 300 296 284 268 266 262 275 256 151 183 183 134 151 168 176 184 192 245 268 251 266 329 345 95 306 280 226 240
334 336 337 336 337 338 336 333 332 329 326 324 325 327 325 319 320 314 297 281 280 250 237 263 261 260 264 192 208 191 163 152 145 167 209 260 281 245 144 73 5 7 248 291 286 222 251
329 330 332 334 338 338 336 336 337 334 330 329 324 324 323 319 320 315 295 257 256 239 214 187 201 297 243 214 201 200 203 188 191 211 246 235 155 53 33 82 216 243 287 279 266 290 290
330 329 330 335 336 339 338 338 338 335 335 335 328 326 324 321 320 314 282 212 190 196 208 209 209 221 350 258 180 188 191 208 225 187 161 181 90 217 227 204 206 240 244 254 275 270 236
331 330 333 335 339 340 338 338 336 338 339 333 329 326 325 323 318 304 250 195 181 121 265 246 247 247 258 248 234 188 187 192 169 166 172 28 217 222 221 225 227 242 251 270 282 271 191
334 336 335 339 343 342 342 341 338 336 336 332 329 326 324 325 318 297 235 203 156 42 217 243 219 231 237 271 201 176 187 207 143 159 176 184 242 215 231 260 247 247 224 227 217 283 216
342 341 339 342 344 345 342 340 338 334 334 331 327 325 325 329 321 340 104 171 165 29 39 244 188 245 213 183 237 190 188 193 179 187 200 212 244 242 259 244 247 254 239 227 253 30 272
345 341 342 343 343 342 341 338 338 335 332 332 327 328 325 313 280 270 20 143 165 156 111 153 165 202 196 173 161 203 195 187 184 211 128 240 64 20 261 209 295 239 232 230 198 119 48
345 342 339 339 341 342 341 339 336 336 333 334 329 329 318 279 317 15 57 144 150 61 125 224 147 176 127 190 276 158 158 194 124 91 237 233 261 233 227 295 290 295 43 39 62 90 8
343 341 340 340 341 341 340 338 336 335 337 333 337 327 290 223 41 38 44 161 65 128 345 198 179 150 166 166 212 139 130 115 122 79 298 352 279 248 243 347 12 35 48 358 343 348 221
346 340 342 340 340 341 339 338 336 336 340 335 349 340 220 167 70 48 45 55 94 355 264 264 145 142 178 159 201 150 136 154 218 164 130 163 342 106 346 132 62 21 139 148 236 213 254
339 339 337 339 340 340 341 339 337 338 342 343 353 298 238 151 141 117 27 60 173 218 245 85 48 80 146 40 96 110 136 190 233 176 170 187 241 63 68 39 74 321 61 155 131 346 110
331 334 336 337 339 343 346 343 339 340 345 350 360 331 259 149 142 148 71 133 240 220 7 57 104 54 87 0 66 72 37 347 66 45 68 213 16 357 2 30 44 119 203 8 17 328 280
327 327 329 334 340 344 347 345 341 342 348 3 6 43 147 110 150 152 188 227 223 44 50 56 95 83 82 98 72 56 58 12 58 34 61 76 92 297 29 15 57 1 0 17 100 127 219
325 325 321 328 335 343 346 346 343 343 349 360 20 36 163 167 76 100 247 271 138 97 53 58 104 120 130 103 75 122 218 110 88 75 70 335 132 322 262 278 284 180 95 95 132 282 300
317 321 321 320 328 336 343 344 343 347 350 355 341 294 167 198 157 242 265 266 66 76 45 44 35 52 91 120 97 41 79 110 101 80 138 262 23 21 343 5 3 70 102 123 99 100 233
312 315 320 320 325 332 340 343 340 345 340 343 341 351 135 190 184 113 301 314 110 58 56 74 45 49 78 85 154 116 117 208 119 104 110 91 102 160 200 235 194 312 312 240 195 183 232
310 313 314 314 321 329 339 343 337 344 344 349 323 313 9 329 340 11 110 288 136 108 96 70 18 74 121 83 28 75 32 44 66 139 86 106 184 196 252 273 294 287 273 274 252 232 230
316 320 321 318 316 338 336 344 337 348 2 49 27 20 345 299 292 11 10 24 91 59 55 65 95 53 66 87 87 125 58 81 200 229 109 19 209 163 258 245 258 275 281 277 265 261 259
319 324 323 307 316 327 326 339 336 346 14 49 23 350 331 306 325 47 219 47 56 91 47 71 111 91 76 34 358 302 249 218 209 149 131 143 138 115 262 346 321 283 239 257 234 135 213
329 325 335 339 327 317 323 336 338 342 6 28 24 12 0 296 355 311 111 93 83 71 119 25 42 87 141 328 309 295 270 255 219 212 169 149 139 141 260 17 255 239 319 248 129 133 332
336 322 325 326 320 321 317 333 336 332 345 6 20 23 20 314 312 5 73 105 80 39 64 82 72 100 2 36 40 349 341 326 242 219 191 168 151 161 184 209 290 308 16 1 131 224 215
333 329 282 306 311 321 324 328 333 333 333 289 343 354 334 121 349 330 53 26 113 50 32 118 74 91 68 73 62 223 229 291 296 166 336 165 132 128 171 205 231 178 305 265 195 255 265
335 317 325 309 309 304 306 316 322 334 342 286 259 353 310 308 22 14 61 88 71 83 105 49 21 35 52 65 92 182 261 279 251 110 113 86 72 219 220 233 271 229 286 151 108 219 266
307 305 300 293 299 305 310 306 301 309 336 271 256 359 8 305 309 55 59 89 103 88 128 296 54 358 40 83 146 261 194 275 16 327 170 165 203 215 253 225 256 243 315 193 228 249 260
290 284 285 297 307 302 297 286 276 275 312 261 227 296 327 272 263 285 286 217 172 178 140 93 130 85 81 99 43 8 338 347 106 268 31 245 186 196 208 258 321 327 275 250 255 298 313
Wind_Speed_850mb
44 44 44 44 43 40 38 36 37 37 32 33 37 38 37 34 33 29 25 21 13 8 6 5 6 6 8 9 19 2 9 9 40 41 41 34 30 17 10 14 27 10 19 41 56 62 54
43 42 44 46 44 43 39 37 37 37 36 33 33 36 37 34 33 31 27 21 16 9 5 4 4 6 9 6 9 6 3 11 29 41 36 40 25 22 12 21 16 19 35 43 56 57 50
44 45 45 43 42 41 41 39 38 39 39 37 33 32 35 37 32 31 29 24 15 13 8 6 3 8 15 21 14 3 5 13 22 28 36 44 24 17 4 13 19 35 12 15 24 38 20
47 44 42 42 39 38 40 42 40 40 39 38 37 35 36 42 40 36 31 24 17 11 13 12 8 11 16 15 21 19 14 13 17 20 29 21 16 33 25 16 14 6 6 4 13 12 14
49 46 45 42 39 41 41 41 42 43 41 40 42 41 40 46 48 43 28 23 16 11 11 12 10 11 17 17 33 26 22 19 23 21 19 11 22 8 4 8 10 11 4 9 17 7 6
48 44 42 41 41 43 43 42 42 42 41 40 41 42 44 49 54 38 20 19 13 11 11 13 14 12 16 15 31 36 25 23 21 17 25 22 2 5 7 9 9 8 4 11 13 11 6
41 44 42 40 42 44 44 44 45 43 44 41 39 42 47 53 50 34 13 10 8 8 26 23 16 13 5 5 27 33 37 39 32 27 8 7 8 10 17 14 13 11 9 16 22 22 7
42 39 38 40 43 44 46 46 47 46 45 44 40 45 49 58 44 29 17 21 16 7 13 31 36 37 30 14 8 20 44 23 14 9 9 3 14 21 18 14 15 17 20 25 16 20 14
38 37 38 40 42 46 47 47 46 48 47 47 43 46 51 54 36 17 20 38 19 6 4 11 31 31 25 6 20 34 42 37 9 10 10 13 19 18 18 20 16 18 17 12 15 12 5
35 36 39 40 43 47 49 50 50 49 49 46 46 43 50 42 11 13 4 18 16 6 7 6 13 11 19 9 5 24 45 38 6 16 11 12 33 23 14 17 17 31 24 16 9 3 9
37 38 37 40 45 48 49 53 53 51 52 47 45 43 41 23 13 6 13 9 24 10 6 10 12 6 12 19 4 16 42 41 16 14 13 15 5 4 6 6 6 16 13 11 2 2 6
37 38 39 42 45 51 54 57 57 54 52 48 45 38 21 10 7 19 17 28 21 4 6 7 14 13 10 11 6 18 18 29 10 5 3 10 6 6 6 15 6 11 2 9 8 7 3
40 40 41 44 47 53 56 57 60 59 51 50 37 19 9 9 8 17 12 23 7 0 8 6 10 12 11 10 8 17 10 9 9 6 8 9 7 5 9 4 14 19 12 7 8 6 9
43 42 43 44 49 54 58 57 58 61 50 45 18 7 3 7 8 9 8 9 6 9 12 12 11 17 12 11 8 10 12 8 6 11 3 6 3 5 4 8 1 4 8 9 8 6 7
46 43 43 45 49 55 55 55 58 60 51 36 8 5 4 13 12 5 2 8 6 10 14 5 11 8 6 6 9 6 8 4 6 18 15 7 8 4 22 9 6 7 8 8 7 5 4
45 45 43 45 48 52 53 53 56 59 50 25 16 7 7 16 20 9 6 1 7 22 8 10 6 6 7 7 8 8 6 8 8 12 3 2 2 10 11 12 9 8 6 2 6 3 9
44 43 42 42 47 48 52 51 53 57 47 26 13 5 12 21 18 3 3 8 8 12 14 8 5 6 8 6 7 5 4 5 7 7 16 7 7 10 8 5 4 11 8 7 6 7 7
48 44 41 39 39 44 49 49 50 54 47 25 9 4 18 21 7 4 6 7 5 6 10 11 5 4 7 6 5 4 3 6 9 4 6 6 8 1 8 13 10 6 3 6 8 5 5
49 49 38 36 36 41 47 47 43 45 47 45 25 8 13 23 5 2 7 11 8 6 10 7 13 6 7 7 6 1 8 12 19 8 7 1 5 6 15 11 12 11 6 6 7 6 11
44 41 38 32 32 37 41 46 40 37 37 34 9 6 1 9 5 6 6 6 5 12 10 10 5 12 9 4 2 4 6 4 15 14 18 13 5 10 11 8 2 11 14 10 13 8 7
40 41 31 32 32 33 37 43 40 36 29 16 2 4 8 3 6 1 2 2 8 5 7 8 12 9 9 6 6 7 9 8 13 22 8 10 9 6 9 12 10 16 24 26 18 19 21
38 33 29 25 29 26 36 40 39 34 22 14 9 9 16 11 16 4 4 10 12 7 8 8 10 8 12 8 4 4 5 4 3 3 6 6 5 7 7 16 20 25 28 27 29 26 26
34 29 26 24 20 23 30 35 35 32 21 8 13 3 5 12 8 2 2 5 9 7 23 21 8 7 14 6 7 8 9 13 12 10 5 8 10 5 7 7 13 14 13 15 11 3 7
32 26 27 18 17 22 26 27 28 25 20 18 23 10 6 5 7 6 11 14 14 9 9 5 10 8 1 9 21 23 24 29 23 17 22 11 10 6 7 7 5 11 12 5 15 6 5
32 16 17 17 16 23 24 23 23 18 15 9 13 8 7 3 13 14 15 9 14 9 4 12 12 10 5 6 7 9 9 3 10 15 17 15 10 6 5 6 12 15 6 6 1 7 5
26 20 18 16 23 22 19 21 19 16 12 3 4 8 2 1 7 19 6 7 5 5 9 10 15 13 8 6 5 2 5 3 4 3 7 14 9 7 6 7 11 3 5 4 4 7 5
20 17 16 18 17 22 17 19 20 13 12 4 4 7 4 3 14 14 9 5 6 8 6 7 5 7 10 5 3 3 6 4 3 3 3 5 2 14 13 10 11 6 8 3 7 9 7
21 19 20 20 21 23 21 21 15 12 13 4 5 5 6 3 7 10 14 9 6 6 7 0 5 7 7 5 4 5 3 5 5 4 9 9 7 6 4 6 12 9 6 6 10 8 20
23 24 26 26 27 26 21 15 13 11 12 5 4 3 6 7 6 17 12 8 5 7 12 6 6 5 3 6 4 2 4 6 3 4 3 2 10 4 9 6 16 33 26 9 6 8 12
Wind_Direction_850mb
346 347 344 341 339 334 332 330 329 330 332 332 332 332 331 332 334 340 346 341 335 338 333 315 287 255 242 231 241 122 46 159 177 185 195 192 194 195 178 193 232 179 258 262 261 263 261
345 345 343 344 344 342 338 335 333 331 331 332 331 330 333 334 330 327 331 334 326 311 302 311 304 244 222 250 195 184 300 201 186 190 190 194 199 212 256 218 163 231 235 255 266 264 256
342 341 344 345 347 347 342 338 336 332 331 334 335 329 330 330 331 324 316 317 314 298 267 259 263 240 244 231 181 177 342 222 198 198 193 189 199 246 242 322 295 263 252 285 262 255 233
339 339 338 340 341 344 341 336 335 331 329 329 334 330 325 322 323 318 307 300 296 284 268 266 262 275 256 151 183 183 134 151 168 176 184 192 245 268 251 266 329 345 95 306 280 226 240
334 336 337 336 337 338 336 333 332 329 326 324 325 327 325 319 320 314 297 281 280 250 237 263 261 260 264 192 208 191 163 152 145 167 209 260 281 245 144 73 5 7 248 291 286 222 251
329 330 332 334 338 338 336 336 337 334 330 329 324 324 323 319 320 315 295 257 256 239 214 187 201 297 243 214 201 200 203 188 191 211 246 235 155 53 33 82 216 243 287 279 266 290 290
330 329 330 335 336 339 338 338 338 335 335 335 328 326 324 321 320 314 282 212 190 196 208 209 209 221 350 258 180 188 191 208 225 187 161 181 90 217 227 204 206 240 244 254 275 270 236
331 330 333 335 339 340 338 338 336 338 339 333 329 326 325 323 318 304 250 195 181 121 265 246 247 247 258 248 234 188 187 192 169 166 172 28 217 222 221 225 227 242 251 270 282 271 191
334 336 335 339 343 342 342 341 338 336 336 332 329 326 324 325 318 297 235 203 156 42 217 243 219 231 237 271 201 176 187 207 143 159 176 184 242 215 231 260 247 247 224 227 217 283 216
342 341 339 342 344 345 342 340 338 334 334 331 327 325 325 329 321 340 104 171 165 29 39 244 188 245 213 183 237 190 188 193 179 187 200 212 244 242 259 244 247 254 239 227 253 30 272
345 341 342 343 343 342 341 338 338 335 332 332 327 328 325 313 280 270 20 143 165 156 111 153 165 202 196 173 161 203 195 187 184 211 128 240 64 20 261 209 295 239 232 230 198 119 48
345 342 339 339 341 342 341 339 336 336 333 334 329 329 318 279 317 15 57 144 150 61 125 224 147 176 127 190 276 158 158 194 124 91 237 233 261 233 227 295 290 295 43 39 62 90 8
343 341 340 340 341 341 340 338 336 335 337 333 337 327 290 223 41 38 44 161 65 128 345 198 179 150 166 166 212 139 130 115 122 79 298 352 279 248 243 347 12 35 48 358 343 348 221
346 340 342 340 340 341 339 338 336 336 340 335 349 340 220 167 70 48 45 55 94 355 264 264 145 142 178 159 201 150 136 154 218 164 130 163 342 106 346 132 62 21 139 148 236 213 254
339 339 337 339 340 340 341 339 337 338 342 343 353 298 238 151 141 117 27 60 173 218 245 85 48 80 146 40 96 110 136 190 233 176 170 187 241 63 68 39 74 321 61 155 131 346 110
331 334 336 337 339 343 346 343 339 340 345 350 360 331 259 149 142 148 71 133 240 220 7 57 104 54 87 0 66 72 37 347 66 45 68 213 16 357 2 30 44 119 203 8 17 328 280
327 327 329 334 340 344 347 345 341 342 348 3 6 43 147 110 150 152 188 227 223 44 50 56 95 83 82 98 72 56 58 12 58 34 61 76 92 297 29 15 57 1 0 17 100 127 219
325 325 321 328 335 343 346 346 343 343 349 360 20 36 163 167 76 100 247 271 138 97 53 58 104 120 130 103 75 122 218 110 88 75 70 335 132 322 262 278 284 180 95 95 132 282 300
317 321 321 320 328 336 343 344 343 347 350 355 341 294 167 198 157 242 265 266 66 76 45 44 35 52 91 120 97 41 79 110 101 80 138 262 23 21 343 5 3 70 102 123 99 100 233
312 315 320 320 325 332 340 343 340 345 340 343 341 351 135 190 184 113 301 314 110 58 56 74 45 49 78 85 154 116 117 208 119 104 110 91 102 160 200 235 194 312 312 240 195 183 232
310 313 314 314 321 329 339 343 337 344 344 349 323 313 9 329 340 11 110 288 136 108 96 70 18 74 121 83 28 75 32 44 66 139 86 106 184 196 252 273 294 287 273 274 252 232 230
316 320 321 318 316 338 336 344 337 348 2 49 27 20 345 299 292 11 10 24 91 59 55 65 95 53 66 87 87 125 58 81 200 229 109 19 209 163 258 245 258 275 281 277 265 261 259
319 324 323 307 316 327 326 339 336 346 14 49 23 350 331 306 325 47 219 47 56 91 47 71 111 91 76 34 358 302 249 218 209 149 131 143 138 115 262 346 321 283 239 257 234 135 213
329 325 335 339 327 317 323 336 338 342 6 28 24 12 0 296 355 311 111 93 83 71 119 25 42 87 141 328 309 295 270 255 219 212 169 149 139 141 260 17 255 239 319 248 129 133 332
336 322 325 326 320 321 317 333 336 332 345 6 20 23 20 314 312 5 73 105 80 39 64 82 72 100 2 36 40 349 341 326 242 219 191 168 151 161 184 209 290 308 16 1 131 224 215
333 329 282 306 311 321 324 328 333 333 333 289 343 354 334 121 349 330 53 26 113 50 32 118 74 91 68 73 62 223 229 291 296 166 336 165 132 128 171 205 231 178 305 265 195 255 265
335 317 325 309 309 304 306 316 322 334 342 286 259 353 310 308 22 14 61 88 71 83 105 49 21 35 52 65 92 182 261 279 251 110 113 86 72 219 220 233 271 229 286 151 108 219 266
307 305 300 293 299 305 310 306 301 309 336 271 256 359 8 305 309 55 59 89 103 88 128 296 54 358 40 83 146 261 194 275 16 327 170 165 203 215 253 225 256 243 315 193 228 249 260
290 284 285 297 307 302 297 286 276 275 312 261 227 296 327 272 263 285 286 217 172 178 140 93 130 85 81 99 43 8 338 347 106 268 31 245 186 196 208 258 321 327 275 250 255 298 313